Weather History for Andravida, Greece

Change the Weather History Date:

Sunday, October 7, 2012

  Actual Average Record
Temperature  
Mean Temperature 69 °F -  
Max Temperature 79 °F 71 °F 82 °F (1998)
Min Temperature 59 °F 53 °F 48 °F (2008)
Cooling Degree Days 4    
Growing Degree Days 19 (Base 50)    
Moisture  
Dew Point 59 °F    
Average Humidity 67    
Maximum Humidity 82    
Minimum Humidity 48    
Precipitation  
Precipitation 0.00 in - - ()
Sea Level Pressure  
Sea Level Pressure 30.02 in    
Wind  
Wind Speed 2 mph ()    
Max Wind Speed 9 mph    
Max Gust Speed -    
Visibility 6.2 miles    
Events      
Averages and records for this station are not official NWS values.
T = Trace of Precipitation, MM = Missing Value Source: Averaged Metar Reports

Daily Weather History Graph

Daily Weather History Graph

Search for Another Location

Airport:

Trip Planner

Search our weather history database for the weather conditions in past years. The results will help you decide how hot, cold, wet, or windy it might be!

Date:

Astronomy

Oct. 07, 2012 Rise Set
Actual Time 7:36 AM EEST 7:08 PM EEST
Civil Twilight 7:09 AM EEST 7:34 PM EEST
Nautical Twilight 6:39 AM EEST 8:05 PM EEST
Astronomical Twilight 6:08 AM EEST 8:35 PM EEST
Moon No Moon Rise 1:56 PM EEST (10/7)
Length of Visible Light 12h 25m
Length of Day
11h 32m
Waning Gibbous, 59% of the Moon is Illuminated
Oct 7
Waning Gibbous
Oct 8
Last Quarter
Oct 15
New
Oct 22
First Quarter
Oct 29
Full

Hourly Weather History & Observations

Time (EEST) Temp. Heat Index Dew Point Humidity Pressure Visibility Wind Dir Wind Speed Gust Speed Precip Events Conditions
12:50 AM 62.6 °F - 57.2 °F 82% 30.06 in - Calm Calm - N/A   Clear
1:50 AM 62.6 °F - 57.2 °F 82% 30.06 in - Calm Calm - N/A   Clear
2:50 AM 62.6 °F - 55.4 °F 77% 30.06 in - Calm Calm - N/A   Clear
3:00 AM 63 °F - 56 °F 70% 30.07 in 6 mi Calm Calm - -  
5:20 AM 60.8 °F - 55.4 °F 82% 30.04 in - Calm Calm - N/A   Clear
5:50 AM 60.8 °F - 53.6 °F 77% 30.04 in - Calm Calm - N/A   Clear
6:50 AM 60.8 °F - 53.6 °F 77% 30.04 in - Calm Calm - N/A   Clear
7:20 AM 60.8 °F - 53.6 °F 77% 30.04 in - Calm Calm - N/A   Clear
7:50 AM 60.8 °F - 53.6 °F 77% 30.04 in - Calm Calm - N/A   Clear
8:20 AM 62.6 °F - 53.6 °F 72% 30.04 in - SE 4.6 mph - N/A   Clear
8:50 AM 64.4 °F - 55.4 °F 73% 30.04 in - Calm Calm - N/A   Clear
9:00 AM 66 °F - 62 °F 82% 30.06 in 6 mi Calm Calm - -  
9:20 AM 66.2 °F - 57.2 °F 73% 30.04 in - Calm Calm - N/A   Clear
9:50 AM 71.6 °F - 57.2 °F 60% 30.06 in - Calm Calm - N/A   Clear
10:50 AM 77.0 °F - 60.8 °F 57% 30.04 in - Calm Calm - N/A   Clear
11:20 AM 77.0 °F - 60.8 °F 57% 30.04 in - Calm Calm - N/A   Clear
11:50 AM 77.0 °F - 59.0 °F 54% 30.04 in - West 4.6 mph - N/A   Clear
12:20 PM 78.8 °F - 59.0 °F 51% 30.04 in - NW 5.8 mph - N/A   Clear
12:50 PM 78.8 °F - 60.8 °F 54% 30.04 in - North 6.9 mph - N/A   Clear
1:20 PM 78.8 °F - 59.0 °F 51% 30.04 in - NW 8.1 mph - N/A   Clear
1:50 PM 78.8 °F - 59.0 °F 51% 30.01 in - NW 6.9 mph - N/A   Clear
2:20 PM 80.6 °F 81.1 °F 59.0 °F 48% 30.01 in - NW 6.9 mph - N/A   Clear
2:50 PM 78.8 °F - 64.4 °F 61% 30.01 in 6.2 mi NW 6.9 mph - N/A   Partly Cloudy
3:00 PM 79 °F - 64 °F 50% 30.01 in 6 mi NW 6.9 mph - -   Scattered Clouds
3:20 PM 78.8 °F - 64.4 °F 61% 30.01 in 6.2 mi West 6.9 mph - N/A   Partly Cloudy
3:50 PM 78.8 °F - 64.4 °F 61% 29.98 in 6.2 mi WNW 8.1 mph - N/A   Partly Cloudy
5:50 PM 77.0 °F - 62.6 °F 61% 29.98 in 6.2 mi West 9.2 mph - N/A   Partly Cloudy
6:20 PM 77.0 °F - 62.6 °F 61% 29.98 in 6.2 mi West 8.1 mph - N/A   Partly Cloudy
7:20 PM 73.4 °F - 62.6 °F 69% 29.98 in 6.2 mi West 5.8 mph - N/A   Partly Cloudy
7:50 PM 71.6 °F - 60.8 °F 69% 29.98 in 6.2 mi Calm Calm - N/A   Partly Cloudy
8:20 PM 71.6 °F - 60.8 °F 69% 29.98 in 6.2 mi West 5.8 mph - N/A   Partly Cloudy
8:50 PM 71.6 °F - 60.8 °F 69% 29.95 in 6.2 mi West 6.9 mph - N/A   Partly Cloudy
9:00 PM 72 °F - 61 °F 61% 29.97 in 6 mi West 6.9 mph - -   Scattered Clouds
9:20 PM 71.6 °F - 60.8 °F 69% 29.95 in 6.2 mi West 6.9 mph - N/A   Partly Cloudy
9:50 PM 69.8 °F - 60.8 °F 73% 29.98 in 6.2 mi West 4.6 mph - N/A   Partly Cloudy
10:20 PM 71.6 °F - 60.8 °F 69% 29.98 in 6.2 mi West 4.6 mph - N/A   Partly Cloudy
10:50 PM 69.8 °F - 60.8 °F 73% 29.98 in 6.2 mi Calm Calm - N/A   Partly Cloudy
11:20 PM 68.0 °F - 59.0 °F 73% 29.98 in 6.2 mi Calm Calm - N/A   Partly Cloudy
11:50 PM 66.2 °F - 59.0 °F 78% 29.98 in 6.2 mi Calm Calm - N/A   Partly Cloudy